Weather History for 78073 - December, 2012

Change the Weather History Date:

Saturday, December 29, 2012

  Actual Average Record
Temperature  
Mean Temperature 76 °F -  
Max Temperature 82 °F 77 °F - ()
Min Temperature 71 °F 62 °F - ()
Cooling Degree Days 12    
Growing Degree Days 26 (Base 50)    
Moisture  
Dew Point 71 °F    
Average Humidity 84    
Maximum Humidity 94    
Minimum Humidity 70    
Precipitation  
Precipitation 0.00 in 0.06 in - ()
Sea Level Pressure  
Sea Level Pressure 30.03 in    
Wind  
Wind Speed 3 mph ()    
Max Wind Speed 46 mph    
Max Gust Speed -    
Visibility 6.5 miles    
Events      
T = Trace of Precipitation, MM = Missing Value Source: Averaged Metar Reports

Daily Weather History Graph

Daily Weather History Graph

Search for Another Location

Airport or City:

Trip Planner

Search our weather history database for the weather conditions in past years. The results will help you decide how hot, cold, wet, or windy it might be!

Date:

Astronomy

Dec. 29, 2012 Rise Set
Actual Time 6:54 AM EST 5:30 PM EST
Civil Twilight 6:29 AM EST 5:55 PM EST
Nautical Twilight 6:00 AM EST 6:23 PM EST
Astronomical Twilight 5:32 AM EST 6:51 PM EST
Moon 6:51 PM EST (12/29) 7:35 AM EST (12/29)
Length of Visible Light 11h 26m
Length of Day
10h 36m
Full, 98% of the Moon is Illuminated
Dec 29
Full
Jan 4
Last Quarter
Jan 11
New
Jan 18
First Quarter
Jan 26
Full

Hourly Weather History & Observations

Time (EST) Temp. Heat Index Dew Point Humidity Pressure Visibility Wind Dir Wind Speed Gust Speed Precip Events Conditions
12:00 AM 73.4 °F - 69.8 °F 88% 30.03 in 6.2 mi Calm Calm - N/A   Scattered Clouds
1:00 AM 72 °F - 71 °F 94% 30.03 in 8 mi Calm Calm - -   Clear
1:00 AM - - 69.8 °F N/A% 30.03 in - Calm Calm - N/A   Clear
2:00 AM 71.6 °F - 69.8 °F 94% - - Calm Calm - N/A   Clear
3:00 AM 71.6 °F - 69.8 °F 94% 30.01 in - Calm Calm - N/A   Clear
4:00 AM 72 °F - 70 °F 92% 30.00 in 9 mi Calm Calm - -   Clear
4:00 AM 71.6 °F - 69.8 °F 94% 30.00 in - Calm Calm - N/A   Clear
6:00 AM 71.6 °F - 69.8 °F 94% 30.00 in 6.2 mi SE 2.3 mph - N/A   Scattered Clouds
8:00 AM 73.4 °F - 69.8 °F 88% 30.06 in 6.2 mi East 1.2 mph - N/A   Scattered Clouds
9:00 AM 77.0 °F - 73.4 °F 89% 30.09 in - ESE 5.8 mph - N/A   Mostly Cloudy
10:00 AM 80 °F - 73 °F 74% 30.09 in 9 mi SSE 10.4 mph - -   Partly Cloudy
10:00 AM 80.6 °F 85.4 °F 73.4 °F 79% 30.09 in 6.2 mi SSE 10.4 mph - N/A   Mostly Cloudy
11:00 AM 77.0 °F - 71.6 °F 83% 30.08 in 6.2 mi SSE 3.5 mph - N/A   Mostly Cloudy
1:00 PM 82 °F - 74 °F 70% 30.02 in 9 mi SSW 6.9 mph - -   Partly Cloudy
1:00 PM 82.4 °F 88.2 °F 73.4 °F 74% 30.02 in 6.2 mi North - - N/A   Mostly Cloudy
2:00 PM 78.8 °F - 71.6 °F 78% 30.00 in 6.2 mi North - - N/A   Mostly Cloudy
3:00 PM 80.6 °F 84.6 °F 71.6 °F 74% 29.99 in 6.2 mi SSE 6.9 mph - N/A   Mostly Cloudy
4:00 PM 80 °F - 72 °F 71% 30.00 in 8 mi SSE 6.9 mph - -   Partly Cloudy
4:00 PM 80.6 °F 84.6 °F 71.6 °F 74% 30.00 in 6.2 mi SSE 6.9 mph - N/A   Mostly Cloudy
5:00 PM 77.0 °F - 71.6 °F 83% 30.01 in 6.2 mi South 3.5 mph - N/A   Mostly Cloudy
6:00 PM 77.0 °F - 71.6 °F 83% 30.03 in 6.2 mi South 3.5 mph - N/A   Mostly Cloudy
7:00 PM 77.0 °F - 71.6 °F 83% 30.02 in 6.2 mi South 2.3 mph - N/A   Mostly Cloudy
8:00 PM 75.2 °F - 69.8 °F 83% 30.05 in 6.2 mi Calm Calm - N/A   Mostly Cloudy
9:00 PM 75.2 °F - 69.8 °F 83% 30.06 in 6.2 mi South 2.3 mph - N/A   Mostly Cloudy
10:00 PM - - 72 °F % 30.07 in 0 mi NNE 46.0 mph - -   Scattered Clouds
10:00 PM 75.2 °F - 71.6 °F 89% 30.06 in 6.2 mi South 3.5 mph - N/A   Scattered Clouds
11:00 PM 73.4 °F - 69.8 °F 88% 30.07 in 6.2 mi SSW 4.6 mph - N/A   Scattered Clouds